CW8081 Weather Reports


time (UTC)temp
F
wind
direction
speed
knots
gust
knots
rain 1hr
in
rain 24hr
in
rain mn
in
humidity
%
barometer
mb
20260505000604 53 0 0.0 0.0 0.00 0.00 0.00 71 1015.9
20260505000104 53 0 0.0 0.0 0.00 0.00 0.00 71 1016.0
20260504234104 53 0 0.0 0.0 0.00 0.00 0.00 70 1016.1
20260504233104 53 0 0.0 0.0 0.00 0.00 0.00 70 1016.2
20260504231104 53 0 0.0 0.0 0.00 0.00 0.00 69 1016.3
20260504230604 53 0 0.0 0.0 0.00 0.00 0.00 69 1016.3
20260504224604 54 0 0.0 0.9 0.00 0.00 0.00 67 1016.3
20260504224104 54 0 0.0 0.9 0.00 0.00 0.00 67 1016.3
20260504223603 54 0 0.0 1.7 0.00 0.00 0.00 67 1016.3
20260504214604 55 0 0.0 0.0 0.00 0.00 0.00 67 1016.2
20260504214104 55 0 0.0 0.0 0.00 0.00 0.00 66 1016.2
20260504213604 55 0 0.0 0.0 0.00 0.00 0.00 66 1016.2
20260504211105 56 0 0.0 0.9 0.00 0.00 0.00 65 1016.2
20260504210603 56 0 0.0 0.9 0.00 0.00 0.00 65 1016.1
20260504203104 57 0 0.0 1.7 0.00 0.00 0.00 66 1016.0
20260504201604 57 0 0.0 0.0 0.00 0.00 0.00 64 1015.9
20260504201104 58 0 0.0 0.0 0.00 0.00 0.00 63 1015.9
20260504200604 58 0 0.0 0.0 0.00 0.00 0.00 63 1015.9
20260504194603 59 0 0.0 0.0 0.00 0.00 0.00 60 1015.9
20260504194104 59 0 0.0 0.0 0.00 0.00 0.00 59 1015.9
20260504191604 61 0 0.0 0.9 0.00 0.00 0.00 57 1015.6
20260504190604 61 0 0.0 0.0 0.00 0.00 0.00 55 1015.6
20260504190104 61 0 0.0 0.9 0.00 0.00 0.00 56 1015.6
20260504184604 62 0 0.0 0.0 0.00 0.00 0.00 56 1015.6
20260504184104 62 0 0.0 0.9 0.00 0.00 0.00 55 1015.6
20260504183603 62 0 0.0 0.0 0.00 0.00 0.00 55 1015.6
20260504183103 62 0 0.0 0.9 0.00 0.00 0.00 55 1015.6
20260504181103 63 0 0.0 0.9 0.00 0.00 0.00 53 1015.4
20260504180104 63 0 0.0 0.0 0.00 0.00 0.00 53 1015.4
20260504174604 64 0 0.0 0.9 0.00 0.00 0.00 53 1015.4
20260504173604 65 0 0.0 0.0 0.00 0.00 0.00 53 1015.4
20260504170603 66 0 0.0 0.0 0.00 0.00 0.00 51 1015.3
20260504151104 69 0 0.0 0.0 0.00 0.00 0.00 53 1015.8
20260504150604 68 0 0.0 0.0 0.00 0.00 0.00 51 1015.8
20260504141104 69 358 0.0 0.0 0.00 0.00 0.00 42 1015.9
20260504130603 68 0 0.0 0.0 0.00 0.00 0.00 46 1016.5
20260504120104 67 0 0.0 0.0 0.00 0.00 0.00 46 1017.5
20260504110603 66 0 0.0 0.0 0.00 0.00 0.00 46 1018.0
20260504110104 66 0 0.0 0.0 0.00 0.00 0.00 45 1018.0
20260504100604 64 0 0.0 0.0 0.00 0.00 0.00 46 1018.5
20260504100104 64 0 0.0 0.0 0.00 0.00 0.00 47 1018.5
20260504090104 62 352 0.0 0.0 0.00 0.00 0.00 47 1019.3
20260504081104 61 324 0.0 0.0 0.00 0.00 0.00 45 1019.4
20260504070104 55 0 0.0 0.0 0.00 0.00 0.00 59 1019.5
20260504050604 48 0 0.0 0.0 0.00 0.00 0.00 79 1018.7
20260504044604 47 0 0.0 0.9 0.00 0.00 0.00 80 1018.7
20260504044104 46 0 0.0 0.0 0.00 0.00 0.00 80 1018.7
20260504043104 46 0 0.0 0.0 0.00 0.00 0.00 80 1018.7
20260504041603 45 0 0.0 0.0 0.00 0.00 0.00 80 1018.7
20260504041103 45 0 0.0 2.6 0.00 0.00 0.00 79 1018.7
20260504040603 45 0 0.0 0.9 0.00 0.00 0.00 79 1018.7
20260504040104 44 0 0.0 1.7 0.00 0.00 0.00 79 1018.7
20260504034603 44 0 0.0 0.0 0.00 0.00 0.00 78 1018.7
20260504031604 44 0 0.0 0.9 0.00 0.01 0.00 77 1018.7
20260504024603 45 0 0.0 0.0 0.00 0.01 0.00 75 1018.9
20260504024103 45 0 0.0 0.0 0.00 0.01 0.00 75 1018.9
20260504023604 45 0 0.0 0.0 0.00 0.01 0.00 75 1018.9
20260504020604 46 0 0.0 0.0 0.00 0.01 0.00 74 1018.4
20260504014104 46 0 0.0 0.0 0.00 0.01 0.00 73 1018.4
20260504013604 46 0 0.0 0.0 0.00 0.01 0.00 74 1018.4
20260504013103 46 0 0.0 1.7 0.00 0.01 0.00 74 1018.4
20260504011604 46 0 0.0 6.1 0.00 0.01 0.00 73 1018.4
20260504011104 46 0 0.9 6.1 0.00 0.01 0.00 73 1018.3
20260504004603 46 0 0.0 0.0 0.00 0.01 0.00 71 1018.3
20260504003604 47 0 0.0 0.0 0.00 0.01 0.00 70 1018.2